BAW85U LKPR-EGLL

Flight info

Callsign BAW85U
Flight time 1h 39m
Altitude 36000
Route LKPR1615 N0447F360 BALTU8E BALTU DCT DONAD DCT RAPET Z93 KODUK DCT MASEK DCT ARPEG DCT ABNED L980 LOGAN LOGAN2H EGLL0143
Aircraft A320/M-VGDW/C

Departure

Time 2026-05-04 16:23
Airport Václav Havel Airport Prague (LKPR)

Arrival

Time 2026-05-04 18:02
Airport London Heathrow Airport (EGLL)
Time Latitude Longitude Altitude Speed Heading
2026-05-04 15:50 50.10896 14.26640 1177 ft 0 kts 214°
2026-05-04 16:11 50.10900 14.26644 1177 ft 3 kts 215°
2026-05-04 16:11 50.10920 14.26670 1172 ft 4 kts 233°
2026-05-04 16:12 50.10923 14.26728 1177 ft 0 kts 311°
2026-05-04 16:14 50.10936 14.26705 1172 ft 3 kts 311°
2026-05-04 16:15 50.11021 14.26553 1173 ft 10 kts 310°
2026-05-04 16:16 50.10940 14.26400 1174 ft 11 kts 214°
2026-05-04 16:16 50.10762 14.26208 1176 ft 12 kts 214°
2026-05-04 16:17 50.10612 14.26052 1176 ft 13 kts 211°
2026-05-04 16:18 50.10489 14.25999 1184 ft 8 kts 132°
2026-05-04 16:18 50.10446 14.26087 1186 ft 12 kts 128°
2026-05-04 16:19 50.10263 14.26466 1194 ft 19 kts 127°
2026-05-04 16:19 50.10060 14.26888 1202 ft 25 kts 126°
2026-05-04 16:20 50.09736 14.27497 1206 ft 25 kts 136°
2026-05-04 16:20 50.09490 14.27872 1214 ft 24 kts 135°
2026-05-04 16:21 50.09179 14.28290 1231 ft 12 kts 186°
2026-05-04 16:22 50.09083 14.28157 1244 ft 12 kts 254°
2026-05-04 16:22 50.09678 14.26865 1216 ft 125 kts 307°
2026-05-04 16:23 50.11646 14.22785 2499 ft 163 kts 304°
2026-05-04 16:24 50.15067 14.15683 3873 ft 243 kts 305°
2026-05-04 16:25 50.17158 14.11340 4932 ft 265 kts 306°
2026-05-04 16:26 50.21377 14.01603 6416 ft 272 kts 282°
2026-05-04 16:26 50.21475 13.92762 9135 ft 275 kts 268°
2026-05-04 16:27 50.21410 13.86667 10392 ft 296 kts 268°
2026-05-04 16:28 50.21308 13.76209 11778 ft 333 kts 268°
2026-05-04 16:28 50.21210 13.66440 13634 ft 342 kts 267°
2026-05-04 16:29 50.21043 13.51339 16048 ft 354 kts 267°
2026-05-04 16:30 50.20898 13.39617 17809 ft 363 kts 267°
2026-05-04 16:31 50.20791 13.31676 18883 ft 369 kts 267°
2026-05-04 16:31 50.20620 13.19542 20443 ft 377 kts 267°
2026-05-04 16:32 50.20434 13.07148 21934 ft 385 kts 267°
2026-05-04 16:33 50.20299 12.98746 22876 ft 390 kts 267°
2026-05-04 16:33 50.20160 12.90227 23741 ft 396 kts 268°
2026-05-04 16:34 50.20013 12.81586 24539 ft 400 kts 267°
2026-05-04 16:34 50.19933 12.77242 24949 ft 401 kts 267°
2026-05-04 16:35 50.19680 12.64113 26148 ft 406 kts 267°
2026-05-04 16:35 50.19412 12.50839 27303 ft 411 kts 266°
2026-05-04 16:36 50.19319 12.46371 27701 ft 412 kts 266°
2026-05-04 16:36 50.19122 12.37372 28431 ft 417 kts 266°
2026-05-04 16:37 50.18965 12.28283 29157 ft 421 kts 267°
2026-05-04 16:37 50.18950 12.23707 29525 ft 423 kts 268°
2026-05-04 16:37 50.18971 12.14480 30455 ft 420 kts 268°
2026-05-04 16:38 50.18963 12.05398 31366 ft 417 kts 268°
2026-05-04 16:39 50.18873 11.91897 32765 ft 412 kts 268°
2026-05-04 16:39 50.18805 11.82998 33723 ft 408 kts 268°
2026-05-04 16:40 50.18847 11.74177 34541 ft 406 kts 270°
2026-05-04 16:40 50.19010 11.65394 35205 ft 405 kts 270°
2026-05-04 16:41 50.19166 11.56617 35833 ft 404 kts 270°
2026-05-04 16:41 50.19324 11.43322 35971 ft 412 kts 269°
2026-05-04 16:43 50.19549 11.20931 35967 ft 413 kts 269°
2026-05-04 16:43 50.19676 11.07486 35970 ft 413 kts 269°
2026-05-04 16:44 50.21601 10.89892 35978 ft 423 kts 294°
2026-05-04 16:45 50.24707 10.82041 35976 ft 426 kts 298°
2026-05-04 16:46 50.32618 10.62397 35996 ft 426 kts 298°
2026-05-04 16:47 50.38912 10.46643 35983 ft 427 kts 298°
2026-05-04 16:48 50.45192 10.30851 35983 ft 427 kts 297°
2026-05-04 16:49 50.51442 10.15016 35989 ft 427 kts 297°
2026-05-04 16:50 50.57659 9.99128 35981 ft 426 kts 297°
2026-05-04 16:51 50.62316 9.87208 35973 ft 426 kts 297°
2026-05-04 16:52 50.68520 9.71254 35960 ft 428 kts 297°
2026-05-04 16:53 50.73036 9.59097 35958 ft 425 kts 289°
2026-05-04 16:54 50.77076 9.41593 35961 ft 423 kts 285°
2026-05-04 16:55 50.83018 9.15358 35981 ft 422 kts 285°
2026-05-04 16:56 50.87915 8.93470 35980 ft 422 kts 285°
2026-05-04 16:57 50.90824 8.80316 35979 ft 422 kts 285°
2026-05-04 16:58 50.94685 8.62757 35991 ft 422 kts 285°
2026-05-04 17:00 51.00434 8.36358 35997 ft 423 kts 284°
2026-05-04 17:01 51.04525 8.15561 36016 ft 422 kts 282°
2026-05-04 17:02 51.07779 7.97646 36033 ft 422 kts 282°
2026-05-04 17:03 51.10249 7.84207 36028 ft 422 kts 282°
2026-05-04 17:03 51.12701 7.70752 36020 ft 422 kts 282°
2026-05-04 17:04 51.15942 7.52779 36020 ft 423 kts 282°
2026-05-04 17:05 51.19173 7.34740 36016 ft 424 kts 281°
2026-05-04 17:06 51.21581 7.21120 36013 ft 424 kts 281°
2026-05-04 17:07 51.23694 7.09060 36021 ft 425 kts 281°
2026-05-04 17:07 51.25547 6.98431 36007 ft 426 kts 281°
2026-05-04 17:08 51.27924 6.84744 36009 ft 427 kts 281°
2026-05-04 17:09 51.29503 6.75596 36012 ft 427 kts 281°
2026-05-04 17:09 51.31076 6.66445 36024 ft 427 kts 281°
2026-05-04 17:10 51.34977 6.43455 35983 ft 429 kts 281°
2026-05-04 17:11 51.36528 6.34221 35986 ft 430 kts 281°
2026-05-04 17:12 51.38847 6.20350 36005 ft 430 kts 281°
2026-05-04 17:13 51.42693 5.97138 35989 ft 432 kts 281°
2026-05-04 17:14 51.45740 5.78454 35988 ft 432 kts 280°
2026-05-04 17:15 51.48005 5.64463 35987 ft 433 kts 280°
2026-05-04 17:16 51.51009 5.45717 35989 ft 434 kts 280°
2026-05-04 17:17 51.53986 5.26923 36000 ft 435 kts 280°
2026-05-04 17:18 51.56940 5.08045 35986 ft 436 kts 280°
2026-05-04 17:19 51.59869 4.89097 35987 ft 437 kts 280°
2026-05-04 17:20 51.62773 4.70103 35985 ft 437 kts 279°
2026-05-04 17:20 51.64952 4.55761 35987 ft 438 kts 279°
2026-05-04 17:21 51.67811 4.36693 35988 ft 438 kts 279°
2026-05-04 17:22 51.69222 4.27145 35983 ft 438 kts 279°
2026-05-04 17:23 51.72035 4.08045 35994 ft 438 kts 279°
2026-05-04 17:24 51.74114 3.93699 35759 ft 437 kts 279°
2026-05-04 17:24 51.76169 3.79407 35039 ft 435 kts 279°
2026-05-04 17:25 51.76851 3.74650 34798 ft 435 kts 279°
2026-05-04 17:25 51.78214 3.65149 34323 ft 434 kts 278°
2026-05-04 17:26 51.79557 3.55648 33821 ft 434 kts 278°
2026-05-04 17:26 51.81568 3.41341 33002 ft 437 kts 278°
2026-05-04 17:27 51.82904 3.31746 32485 ft 438 kts 278°
2026-05-04 17:27 51.84241 3.22054 31972 ft 438 kts 278°
2026-05-04 17:28 51.84616 3.12401 31450 ft 426 kts 261°
2026-05-04 17:29 51.83683 2.98170 30688 ft 423 kts 260°
2026-05-04 17:29 51.82755 2.84054 29938 ft 419 kts 260°
2026-05-04 17:30 51.81813 2.70107 29086 ft 413 kts 260°
2026-05-04 17:31 51.81186 2.60924 28530 ft 409 kts 261°
2026-05-04 17:31 51.80247 2.47294 27717 ft 404 kts 261°
2026-05-04 17:32 51.79610 2.38305 27204 ft 401 kts 261°
2026-05-04 17:33 51.78644 2.24968 26411 ft 397 kts 261°
2026-05-04 17:33 51.78326 2.20546 26156 ft 396 kts 261°
2026-05-04 17:34 51.77550 2.07301 25408 ft 393 kts 263°
2026-05-04 17:34 51.77310 2.02909 25166 ft 392 kts 263°
2026-05-04 17:35 51.76547 1.89843 24558 ft 388 kts 262°
2026-05-04 17:35 51.76096 1.82612 23963 ft 384 kts 262°
2026-05-04 17:35 51.75829 1.78328 23609 ft 382 kts 262°
2026-05-04 17:36 51.75565 1.74072 23207 ft 380 kts 262°
2026-05-04 17:36 51.75302 1.69838 22795 ft 378 kts 262°
2026-05-04 17:36 51.75039 1.65629 22388 ft 376 kts 262°
2026-05-04 17:36 51.74775 1.61440 21987 ft 375 kts 262°
2026-05-04 17:37 51.74512 1.57265 21589 ft 373 kts 262°
2026-05-04 17:37 51.74250 1.53121 21202 ft 371 kts 262°
2026-05-04 17:37 51.73989 1.48998 20817 ft 368 kts 262°
2026-05-04 17:37 51.73725 1.44893 20443 ft 367 kts 262°
2026-05-04 17:38 51.73458 1.40800 20068 ft 367 kts 262°
2026-05-04 17:38 51.73189 1.36704 19698 ft 366 kts 262°
2026-05-04 17:38 51.72921 1.32627 19330 ft 365 kts 262°
2026-05-04 17:38 51.72653 1.28571 18964 ft 362 kts 262°
2026-05-04 17:39 51.72116 1.20517 18253 ft 360 kts 263°
2026-05-04 17:39 51.71850 1.16505 17846 ft 358 kts 262°
2026-05-04 17:39 51.71583 1.12532 17445 ft 356 kts 262°
2026-05-04 17:40 51.71315 1.08580 17047 ft 353 kts 262°
2026-05-04 17:40 51.71046 1.04654 16661 ft 352 kts 262°
2026-05-04 17:40 51.70778 1.00746 16269 ft 351 kts 263°
2026-05-04 17:40 51.70510 0.96844 15888 ft 349 kts 263°
2026-05-04 17:41 51.70242 0.92909 15518 ft 348 kts 263°
2026-05-04 17:41 51.69980 0.89093 15146 ft 346 kts 263°
2026-05-04 17:41 51.69713 0.85234 14777 ft 345 kts 263°
2026-05-04 17:41 51.69442 0.81345 14409 ft 344 kts 263°
2026-05-04 17:42 51.69172 0.77513 14049 ft 343 kts 263°
2026-05-04 17:42 51.68900 0.73707 13677 ft 342 kts 263°
2026-05-04 17:42 51.68630 0.69916 13271 ft 339 kts 263°
2026-05-04 17:42 51.68362 0.66160 12884 ft 336 kts 263°
2026-05-04 17:43 51.68095 0.62428 12492 ft 334 kts 263°
2026-05-04 17:43 51.67829 0.58741 12105 ft 329 kts 263°
2026-05-04 17:43 51.67563 0.55100 11729 ft 325 kts 263°
2026-05-04 17:43 51.67300 0.51510 11348 ft 321 kts 263°
2026-05-04 17:44 51.67041 0.47967 10984 ft 317 kts 263°
2026-05-04 17:44 51.66784 0.44447 10614 ft 314 kts 263°
2026-05-04 17:44 51.66530 0.40979 10251 ft 310 kts 263°
2026-05-04 17:44 51.66276 0.37543 9887 ft 308 kts 263°
2026-05-04 17:45 51.66024 0.34141 9486 ft 305 kts 263°
2026-05-04 17:45 51.65774 0.30770 9089 ft 302 kts 263°
2026-05-04 17:45 51.65525 0.27422 8700 ft 300 kts 263°
2026-05-04 17:45 51.65276 0.24102 8305 ft 297 kts 263°
2026-05-04 17:46 51.65026 0.20824 7924 ft 289 kts 263°
2026-05-04 17:46 51.64786 0.17685 7543 ft 277 kts 263°
2026-05-04 17:46 51.64619 0.14647 7174 ft 268 kts 272°
2026-05-04 17:46 51.64733 0.11752 7016 ft 250 kts 273°
2026-05-04 17:47 51.64840 0.09050 7022 ft 236 kts 273°
2026-05-04 17:47 51.64938 0.06422 7026 ft 235 kts 273°
2026-05-04 17:47 51.65034 0.03770 7028 ft 238 kts 273°
2026-05-04 17:47 51.65129 0.01135 7027 ft 236 kts 273°
2026-05-04 17:48 51.65224 -0.01505 7050 ft 235 kts 272°
2026-05-04 17:48 51.65316 -0.04138 7050 ft 236 kts 271°
2026-05-04 17:48 51.65410 -0.06779 7051 ft 236 kts 272°
2026-05-04 17:48 51.65506 -0.09432 7051 ft 238 kts 272°
2026-05-04 17:49 51.65602 -0.12093 7052 ft 238 kts 272°
2026-05-04 17:49 51.65701 -0.14842 7062 ft 257 kts 272°
2026-05-04 17:49 51.65803 -0.17790 7064 ft 269 kts 272°
2026-05-04 17:49 51.65897 -0.20817 7063 ft 272 kts 272°
2026-05-04 17:50 51.65995 -0.23850 7071 ft 271 kts 272°
2026-05-04 17:50 51.66094 -0.26882 7061 ft 270 kts 272°
2026-05-04 17:50 51.66195 -0.29894 7056 ft 271 kts 272°
2026-05-04 17:50 51.66293 -0.32920 7055 ft 269 kts 272°
2026-05-04 17:51 51.66395 -0.35930 7055 ft 270 kts 272°
2026-05-04 17:51 51.66494 -0.38951 7054 ft 269 kts 272°
2026-05-04 17:51 51.66595 -0.41965 7054 ft 271 kts 272°
2026-05-04 17:51 51.66527 -0.44939 7022 ft 259 kts 256°
2026-05-04 17:52 51.65866 -0.47534 7025 ft 244 kts 241°
2026-05-04 17:52 51.65074 -0.49858 7027 ft 230 kts 241°
2026-05-04 17:52 51.64326 -0.52045 7027 ft 219 kts 241°
2026-05-04 17:52 51.63588 -0.54197 7028 ft 220 kts 241°
2026-05-04 17:53 51.62851 -0.56342 7030 ft 218 kts 241°
2026-05-04 17:53 51.62119 -0.58472 7030 ft 218 kts 241°
2026-05-04 17:53 51.61383 -0.60611 7029 ft 220 kts 241°
2026-05-04 17:53 51.60663 -0.62715 7025 ft 208 kts 241°
2026-05-04 17:54 51.60084 -0.64808 7025 ft 203 kts 253°
2026-05-04 17:54 51.59826 -0.67053 6847 ft 205 kts 264°
2026-05-04 17:54 51.59691 -0.69335 6604 ft 204 kts 264°
2026-05-04 17:54 51.59553 -0.71588 6389 ft 202 kts 264°
2026-05-04 17:55 51.59413 -0.73827 6165 ft 201 kts 263°
2026-05-04 17:55 51.59241 -0.76051 5959 ft 200 kts 255°
2026-05-04 17:55 51.58604 -0.78028 5640 ft 202 kts 228°
2026-05-04 17:55 51.57455 -0.79315 5332 ft 205 kts 201°
2026-05-04 17:56 51.56048 -0.79630 5037 ft 206 kts 178°
2026-05-04 17:56 51.54792 -0.79570 4775 ft 208 kts 178°
2026-05-04 17:56 51.54304 -0.79543 4672 ft 209 kts 177°
2026-05-04 17:56 51.53636 -0.79515 4516 ft 210 kts 180°
2026-05-04 17:57 51.52148 -0.79489 4219 ft 212 kts 177°
2026-05-04 17:57 51.50664 -0.79398 3920 ft 215 kts 176°
2026-05-04 17:57 51.49171 -0.79259 3634 ft 215 kts 169°
2026-05-04 17:57 51.47912 -0.78158 3357 ft 208 kts 124°
2026-05-04 17:58 51.47515 -0.76042 3102 ft 199 kts 85°
2026-05-04 17:58 51.47611 -0.73838 2874 ft 196 kts 86°
2026-05-04 17:58 51.47631 -0.71702 2755 ft 185 kts 87°
2026-05-04 17:58 51.47642 -0.69727 2657 ft 172 kts 87°
2026-05-04 17:59 51.47652 -0.67849 2478 ft 166 kts 86°
2026-05-04 17:59 51.47662 -0.66039 2283 ft 158 kts 86°
2026-05-04 17:59 51.47682 -0.62590 1868 ft 152 kts 86°
2026-05-04 18:00 51.47690 -0.60944 1660 ft 144 kts 85°
2026-05-04 18:00 51.47698 -0.59360 1468 ft 141 kts 86°
2026-05-04 18:00 51.47705 -0.57812 1281 ft 139 kts 86°
2026-05-04 18:00 51.47708 -0.56244 1097 ft 139 kts 86°
2026-05-04 18:01 51.47706 -0.54685 892 ft 139 kts 86°
2026-05-04 18:01 51.47710 -0.53116 734 ft 141 kts 86°
2026-05-04 18:01 51.47730 -0.51544 539 ft 140 kts 87°
2026-05-04 18:02 51.47743 -0.48430 127 ft 138 kts 88°
2026-05-04 18:02 51.47751 -0.46971 89 ft 117 kts 87°
2026-05-04 18:02 51.47761 -0.46143 86 ft 31 kts 90°
2026-05-04 18:02 51.47757 -0.45899 86 ft 18 kts 104°
2026-05-04 18:03 51.47684 -0.45919 88 ft 8 kts 223°
2026-05-04 18:03 51.47652 -0.45967 87 ft 1 kts 222°
2026-05-04 18:03 51.47652 -0.45968 87 ft 0 kts 222°
2026-05-04 18:04 51.47602 -0.46048 86 ft 8 kts 239°
2026-05-04 18:05 51.47595 -0.46150 88 ft 11 kts 269°
2026-05-04 18:05 51.47594 -0.46281 89 ft 13 kts 269°
2026-05-04 18:05 51.47593 -0.46436 86 ft 15 kts 269°
2026-05-04 18:05 51.47592 -0.46598 86 ft 13 kts 269°
2026-05-04 18:06 51.47584 -0.46879 89 ft 13 kts 263°
2026-05-04 18:06 51.47583 -0.47031 90 ft 15 kts 270°
2026-05-04 18:06 51.47582 -0.47214 90 ft 18 kts 269°
2026-05-04 18:07 51.47581 -0.47386 90 ft 15 kts 270°
2026-05-04 18:07 51.47581 -0.47558 90 ft 17 kts 270°
2026-05-04 18:07 51.47580 -0.47690 87 ft 17 kts 270°
2026-05-04 18:07 51.47579 -0.47925 88 ft 17 kts 270°
2026-05-04 18:08 51.47579 -0.48044 88 ft 15 kts 270°
2026-05-04 18:08 51.47579 -0.48200 90 ft 11 kts 270°
2026-05-04 18:08 51.47578 -0.48321 88 ft 11 kts 269°
2026-05-04 18:08 51.47574 -0.48442 87 ft 10 kts 249°
2026-05-04 18:09 51.47414 -0.48474 86 ft 15 kts 180°
2026-05-04 18:09 51.47181 -0.48472 88 ft 18 kts 179°
2026-05-04 18:10 51.47087 -0.48472 89 ft 12 kts 180°
2026-05-04 18:10 51.47028 -0.48471 88 ft 8 kts 180°
2026-05-04 18:10 51.46972 -0.48471 88 ft 8 kts 179°
2026-05-04 18:10 51.46917 -0.48470 89 ft 6 kts 179°
2026-05-04 18:11 51.46886 -0.48484 87 ft 5 kts 227°
2026-05-04 18:11 51.46879 -0.48538 86 ft 4 kts 266°
2026-05-04 18:11 51.46889 -0.48575 86 ft 4 kts 331°
2026-05-04 18:11 51.46915 -0.48573 86 ft 1 kts
2026-05-04 18:12 51.46928 -0.48573 86 ft 1 kts
2026-05-04 18:12 51.46929 -0.48573 86 ft 0 kts